Theta_e
304 304 304 300 301 300 296 297 304 309 309 311 315 318 329 329 331 333 334 337 339 342 342 341 343 346 346 345 347 346 346 352
303 305 303 303 301 297 299 296 296 301 302 307 308 310 321 326 328 331 334 337 338 337 337 339 340 339 337 337 338 338 337 337
304 302 300 301 301 296 298 302 301 299 301 308 307 310 317 322 326 328 332 332 331 331 330 328 328 328 328 329 331 332 335 338
300 303 303 303 300 300 298 295 301 302 299 309 308 316 322 318 317 317 316 317 317 319 321 322 323 322 321 322 324 327 329 333
298 302 304 303 301 298 299 302 300 300 300 309 312 315 320 316 315 315 315 315 317 318 318 319 319 319 319 320 321 323 325 326
297 300 303 301 301 300 300 299 299 301 301 304 309 312 313 313 314 314 314 315 315 316 316 316 315 316 316 316 317 321 321 321
302 302 301 300 299 300 300 300 299 301 303 305 310 311 312 313 313 311 311 312 311 310 311 311 312 313 313 314 315 317 317 316
300 302 301 299 301 300 299 299 302 304 303 309 311 312 311 310 309 309 309 309 308 309 310 310 310 311 312 312 313 314 314 314
297 299 299 296 300 300 301 302 304 301 306 309 309 309 310 309 308 307 307 307 307 308 309 309 310 311 310 311 312 312 313 313
297 299 291 300 306 304 303 303 305 306 307 309 310 311 312 311 308 306 305 306 307 308 309 310 311 311 312 312 312 311 311 311
296 295 297 300 303 303 302 301 307 307 308 308 309 310 310 311 309 306 306 307 308 309 310 311 311 311 311 310 311 311 311 311
294 292 290 300 307 309 308 299 309 310 309 307 308 303 307 312 310 306 307 308 308 308 309 310 311 312 310 310 310 310 312 312
295 294 295 301 307 309 296 300 311 312 312 309 306 308 310 311 306 306 307 306 308 309 309 311 313 313 311 311 311 313 313 313
295 294 291 306 305 301 308 309 314 313 313 311 311 310 309 306 306 306 306 307 309 309 310 312 313 313 312 312 315 315 313 311
300 300 303 308 307 310 310 312 313 315 314 313 311 310 307 306 306 306 307 308 309 309 310 312 313 314 313 315 316 314 312 310
302 305 307 310 313 313 313 313 315 316 314 313 310 308 306 306 306 307 308 309 310 309 309 310 313 314 315 316 316 314 310 308
302 305 308 311 313 315 314 314 314 314 313 312 310 306 306 306 307 308 309 309 309 309 309 311 313 314 316 317 317 315 313 309
302 311 311 311 312 316 314 313 314 313 310 310 308 307 306 307 308 308 308 310 309 310 311 312 314 314 316 317 317 314 314 310
310 310 312 312 314 314 315 315 314 313 311 308 308 308 307 307 309 308 308 309 310 310 311 312 313 314 317 318 318 316 315 316
Wind_Speed
6 2 3 5 3 3 6 2 4 2 3 5 6 9 7 8 12 12 10 11 11 12 12 13 12 12 11 7 5 3 6 6
2 1 13 2 8 4 1 6 6 4 2 1 7 7 4 9 8 10 10 9 12 13 13 13 12 10 8 6 5 6 7 6
3 5 3 5 4 6 4 4 3 4 3 2 1 3 4 8 9 10 12 13 12 12 12 13 13 11 10 10 12 12 11 9
6 3 2 2 3 3 4 6 1 3 4 2 3 6 11 13 12 14 14 14 13 12 10 8 8 9 11 9 9 10 10 10
4 4 3 2 4 3 4 2 7 5 5 5 8 10 11 14 13 13 13 12 11 10 10 9 9 9 10 12 11 11 11 12
6 3 3 5 4 3 3 4 6 4 12 12 11 13 11 11 10 10 10 10 10 10 9 10 10 11 12 12 13 13 14 14
7 5 5 6 4 2 4 1 6 7 16 16 13 13 10 8 8 8 9 10 10 9 8 8 9 9 9 9 11 13 14 15
5 6 4 5 5 3 3 4 4 12 12 8 10 9 8 6 6 7 7 9 10 10 12 12 14 14 15 17 18 19 19 19
4 4 2 5 4 4 2 2 7 9 7 15 12 9 7 6 5 6 7 8 9 10 11 11 13 14 16 17 18 18 19 19
4 2 5 5 5 6 4 2 3 9 15 13 10 5 5 3 4 4 5 7 8 7 8 9 11 13 14 15 16 17 18 18
3 2 3 1 5 5 2 3 4 12 13 10 6 5 5 6 2 2 5 5 5 6 7 8 10 11 12 13 14 15 16 18
4 4 5 2 8 5 3 3 12 10 12 11 9 5 3 8 5 4 5 4 3 5 7 8 9 9 11 12 13 15 16 18
3 1 2 3 6 6 4 3 16 14 12 12 7 3 6 6 3 3 3 3 7 8 8 8 8 8 10 11 13 14 15 15
2 2 3 6 7 5 2 2 12 13 12 11 6 6 5 5 5 6 5 5 7 7 8 9 9 9 12 12 12 12 13 12
4 1 2 3 2 2 2 3 5 11 10 9 8 6 5 5 5 4 4 5 6 7 11 12 12 12 14 15 15 14 15 15
4 4 2 3 2 2 4 2 4 7 10 9 7 6 4 5 5 5 5 6 6 8 11 15 13 14 15 17 16 16 15 15
1 2 4 8 8 5 6 4 7 7 8 9 7 5 4 5 6 6 6 7 7 9 11 15 14 15 16 16 16 17 16 14
1 5 1 3 2 7 9 9 8 9 8 7 8 6 6 6 6 6 8 7 9 11 12 15 15 16 17 16 14 14 16 10
1 0 3 1 2 2 8 8 9 10 8 10 8 6 6 5 5 6 8 10 11 13 14 14 15 15 16 15 14 15 13 12
Wind_Direction
28 99 312 131 177 31 113 59 228 131 129 220 48 26 47 96 134 124 108 95 81 82 71 65 59 54 60 55 66 76 56 47
115 269 52 355 127 168 111 180 226 159 206 307 355 4 68 99 99 89 85 94 99 86 69 68 58 58 41 43 45 33 37 33
199 19 140 147 149 67 104 305 232 188 160 4 57 69 99 77 71 79 89 82 78 72 61 48 39 25 15 17 12 6 3 354
103 68 70 61 92 192 245 178 27 311 123 46 89 113 112 98 84 87 82 75 66 54 49 47 33 16 4 11 13 4 354 337
145 167 164 106 95 101 115 164 183 217 132 142 130 115 111 108 98 89 82 80 77 70 54 44 30 18 3 2 351 348 341 337
213 94 100 152 122 126 241 221 155 210 149 170 151 131 121 105 92 82 70 62 54 45 33 22 9 3 355 345 343 338 331 324
74 83 90 83 49 335 229 253 245 152 174 167 154 141 122 111 96 77 59 46 35 27 21 16 11 5 356 349 343 334 328 327
84 63 115 96 56 82 67 140 70 152 147 153 142 135 135 113 90 67 49 36 24 21 19 17 13 5 358 356 352 348 341 335
132 32 156 218 3 304 154 204 161 175 159 153 156 158 153 135 88 54 39 32 29 28 24 16 7 358 352 345 339 337 333 329
100 126 224 26 320 240 112 100 180 117 145 156 158 155 149 127 86 47 44 44 41 29 13 1 350 348 338 334 330 324 319 318
156 181 342 140 184 185 245 125 162 141 144 136 130 143 201 183 152 57 78 63 35 6 344 334 330 328 321 314 309 315 314 311
163 175 203 141 180 219 213 172 180 173 164 159 158 218 108 173 185 156 110 82 359 314 304 295 297 309 307 307 312 308 314 310
152 153 243 233 145 162 224 84 177 187 181 176 198 38 103 139 149 126 144 200 239 251 271 285 288 302 298 304 305 312 310 301
151 179 213 155 130 208 60 121 184 188 183 185 152 143 165 173 176 180 194 229 252 281 296 301 304 297 297 303 310 304 293 291
231 124 18 190 49 88 197 156 183 191 180 177 176 183 174 186 190 207 245 276 287 298 309 305 305 299 292 293 303 310 310 303
212 159 179 198 199 233 197 223 185 191 171 175 175 182 185 193 202 235 249 261 284 297 296 297 302 297 287 289 294 304 296 292
183 251 280 243 229 207 189 177 166 164 172 182 179 180 195 205 225 242 261 267 281 286 287 290 300 292 291 293 299 295 289 295
272 176 217 95 8 206 197 195 182 172 169 182 194 190 193 224 235 244 261 280 285 285 285 289 295 298 299 300 297 284 293 297
103 351 197 9 358 208 215 193 183 190 187 186 190 196 213 246 246 264 273 277 279 283 287 292 294 295 297 299 297 292 291 294